Date,TemperatureHighF,TemperatureAvgF,TemperatureLowF,DewpointHighF,DewpointAvgF,DewpointLowF,HumidityHigh,HumidityAvg,HumidityLow,PressureMaxIn,PressureMinIn,WindSpeedMaxMPH,WindSpeedAvgMPH,GustSpeedMaxMPH,PrecipitationSumIn
2013-1-1,42,34,27,33,27,23,95,76,58,30.51,30.40,13,1,13,0.01
2013-1-2,42,37,30,27,25,24,83,63,54,30.40,30.26,24,5,24,0.00
2013-1-3,41,37,34,32,25,23,75,62,52,30.30,30.19,18,3,18,0.00
2013-1-4,45,40,36,42,37,32,96,92,76,30.40,30.23,5,0,5,0.03
2013-1-5,41,38,36,37,34,32,100,86,76,30.27,30.21,10,1,10,0.02
2013-1-6,45,40,36,43,38,35,100,94,91,30.30,30.10,12,1,12,0.11
2013-1-7,54,48,45,50,46,43,95,91,84,30.25,30.02,22,5,22,0.13
2013-1-8,54,51,46,51,48,44,97,90,78,30.25,29.93,22,5,22,0.06
2013-1-9,52,43,35,46,40,34,95,87,78,30.03,29.73,20,3,20,0.14
2013-1-10,42,37,32,38,35,31,96,93,82,30.15,30.03,7,0,7,0.07
2013-1-11,40,33,28,36,30,26,97,89,62,30.36,30.15,8,0,8,0.00
2013-1-12,33,29,25,32,27,24,97,95,90,30.47,30.35,6,0,6,0.00
2013-1-13,31,28,26,28,27,25,96,93,86,30.56,30.45,6,0,6,0.00
2013-1-14,33,31,29,32,29,26,96,92,89,30.62,30.54,5,0,5,0.01
2013-1-15,38,35,33,36,34,32,97,94,89,30.72,30.62,9,1,9,0.01
2013-1-16,36,35,33,34,33,32,97,94,91,30.71,30.55,6,1,6,0.00
2013-1-17,46,35,30,37,33,29,97,90,70,30.55,30.37,7,1,7,0.00
2013-1-18,46,32,26,37,30,26,97,90,68,30.39,30.32,4,0,4,0.01
2013-1-19,44,32,26,38,30,25,97,94,78,30.41,30.33,4,0,4,0.00
2013-1-20,47,33,26,37,29,25,97,86,62,30.42,30.29,4,0,4,0.01
2013-1-21,46,32,23,34,28,22,96,85,60,30.34,30.20,5,0,5,0.00
2013-1-22,46,32,23,31,27,21,96,81,53,30.22,30.00,5,0,5,0.01
2013-1-23,37,35,34,34,31,27,96,85,71,30.26,29.95,6,0,6,0.23
2013-1-24,41,38,35,40,37,34,97,96,93,30.28,30.14,9,0,9,0.15
2013-1-25,50,44,40,49,43,40,98,96,93,30.18,30.00,6,0,6,0.08
2013-1-26,46,42,37,42,40,36,100,92,81,30.14,29.96,16,2,16,0.08
2013-1-27,43,40,37,41,38,36,97,94,91,30.20,30.09,11,2,11,0.05
2013-1-28,46,42,39,43,40,38,97,94,85,30.25,30.13,9,1,9,0.25
2013-1-29,49,45,43,47,44,42,97,94,89,30.51,30.24,14,2,14,0.03
2013-1-30,51,48,44,48,45,42,93,90,87,30.50,30.45,17,4,17,0.01
2013-1-31,54,48,44,48,46,44,97,90,75,30.49,30.36,6,0,6,0.00
2013-2-1,54,47,40,47,44,38,97,89,71,30.40,30.30,9,1,9,0.01
2013-2-2,57,43,32,44,39,31,97,85,59,30.34,30.29,6,0,6,0.01
2013-2-3,46,41,36,44,40,34,98,96,92,30.39,30.27,4,0,4,0.01
2013-2-4,53,46,42,45,43,40,97,89,74,30.28,29.98,5,0,5,0.00
2013-2-5,51,46,42,46,43,40,95,88,76,30.08,29.95,19,5,19,0.05
2013-2-6,51,47,42,44,42,40,94,85,74,30.13,29.88,20,5,20,0.07
2013-2-7,50,42,36,40,38,34,95,85,61,30.19,29.94,15,2,15,0.16
2013-2-8,50,39,30,41,35,28,97,85,65,30.33,30.19,10,0,10,0.01
2013-2-9,45,41,34,43,39,33,96,94,88,30.35,30.30,4,0,4,0.02
2013-2-10,48,43,39,42,39,38,97,86,74,30.40,30.34,9,1,9,0.01
2013-2-11,47,44,42,42,40,36,90,83,76,30.43,30.36,10,1,10,0.00
2013-2-12,55,49,45,48,45,42,93,85,71,30.50,30.42,11,2,11,0.00
2013-2-13,54,50,46,48,44,42,92,83,68,30.55,30.45,12,2,12,0.00
2013-2-14,53,46,38,45,42,36,95,85,74,30.60,30.54,6,0,6,0.00
2013-2-15,64,51,42,46,44,40,94,76,52,30.54,30.23,9,1,9,0.00
2013-2-16,52,45,39,48,41,36,100,88,73,30.32,30.25,10,1,10,0.07
2013-2-17,50,42,35,40,36,30,96,81,49,30.34,30.14,7,1,7,0.00
2013-2-18,47,41,34,40,36,33,96,85,66,30.14,29.78,15,2,15,0.06
2013-2-19,55,45,37,41,38,34,97,78,47,30.04,29.74,13,2,13,0.03
2013-2-20,48,40,34,41,37,32,95,88,74,30.14,30.04,15,2,15,0.03
2013-2-21,46,42,37,41,39,36,96,89,79,30.22,30.12,18,4,18,0.02
2013-2-22,49,44,37,45,41,35,93,89,79,30.20,29.92,25,6,25,0.56
2013-2-23,48,41,36,41,37,34,94,86,66,30.49,30.11,15,2,15,0.14
2013-2-24,52,44,36,39,36,33,95,77,51,30.48,30.08,17,2,17,0.00
2013-2-25,50,43,35,41,38,32,93,83,53,30.43,30.05,18,4,18,0.14
2013-2-26,50,40,31,40,36,30,97,84,56,30.44,30.28,11,1,11,0.01
2013-2-27,52,47,43,46,42,38,95,81,71,30.36,30.26,11,1,11,0.07
2013-2-28,58,52,47,53,50,46,97,90,84,30.47,30.23,15,4,15,0.06
2013-3-1,61,56,52,52,50,48,92,83,69,30.48,30.35,14,3,14,0.00
2013-3-2,56,50,42,49,46,38,94,85,72,30.35,30.19,20,2,20,0.01
2013-3-3,50,41,31,40,36,29,96,82,59,30.37,30.29,13,1,13,0.01
2013-3-4,58,44,30,37,31,28,96,66,33,30.30,29.95,14,2,14,0.01
2013-3-5,48,42,35,44,38,32,95,89,79,29.95,29.69,10,1,10,0.34
2013-3-6,45,43,41,43,41,39,96,93,88,30.00,29.58,15,3,15,0.27
2013-3-7,58,47,37,41,38,32,95,74,41,30.10,30.00,10,1,10,0.00
2013-3-8,61,46,33,40,36,31,96,71,34,30.25,30.07,10,1,10,0.00
2013-3-9,61,46,31,43,37,29,95,73,41,30.53,30.25,8,0,8,0.00
2013-3-10,50,44,36,44,40,34,94,86,72,30.54,30.46,5,0,5,0.00
2013-3-11,56,50,44,50,46,42,93,86,75,30.47,30.27,8,1,8,0.00
2013-3-12,62,54,47,51,48,45,96,80,59,30.27,30.18,13,2,13,0.00
2013-3-13,66,56,48,50,47,45,92,75,51,30.26,30.12,8,1,8,0.00
2013-3-14,59,53,47,50,47,40,95,80,51,30.24,30.08,13,2,13,0.00
2013-3-15,63,55,47,53,48,44,95,79,59,30.27,30.19,9,1,9,0.03
2013-3-16,52,47,40,48,43,36,95,86,73,30.21,30.05,19,3,19,0.07
2013-3-17,51,44,37,38,35,33,90,74,51,30.34,30.18,17,3,17,0.00
2013-3-18,55,44,33,42,37,31,95,77,52,30.33,30.20,10,1,10,0.00
2013-3-19,51,44,38,46,40,35,96,86,65,30.20,29.69,10,1,10,0.57
2013-3-20,53,49,41,51,44,34,97,82,63,30.20,29.55,24,7,24,0.39
2013-3-21,40,39,38,37,36,36,91,90,83,30.28,30.20,14,3,14,0.04
2013-3-22,43,39,35,37,35,33,92,86,75,30.44,30.28,4,1,4,0.04
2013-3-23,51,41,34,38,33,26,95,76,40,30.44,30.32,8,0,8,0.00
2013-3-24,56,46,36,36,34,31,90,65,42,30.32,30.13,13,2,13,0.00
2013-3-25,62,50,40,46,38,31,87,65,35,30.13,29.94,11,1,11,0.00
2013-3-26,54,48,41,47,44,39,95,87,73,30.07,30.00,5,0,5,0.01
2013-3-27,67,54,43,49,46,42,96,76,46,30.02,29.92,13,1,13,0.00
2013-3-28,66,55,45,51,47,43,95,77,51,30.16,30.02,10,1,10,0.00
2013-3-29,70,59,49,53,49,46,94,72,44,30.24,30.16,10,0,10,0.00
2013-3-30,78,62,47,51,48,43,90,63,35,30.22,30.00,11,1,11,0.00
2013-3-31,75,61,45,55,49,42,93,68,39,30.02,29.92,13,2,13,0.00
2013-4-1,67,58,47,54,49,44,94,75,56,30.19,30.02,12,2,15,0.00
2013-4-2,66,57,52,51,49,48,89,76,54,30.24,30.15,9,1,9,0.00
2013-4-3,66,55,43,54,48,41,95,81,59,30.20,29.94,7,0,7,0.00
2013-4-4,61,56,53,56,52,49,95,87,75,29.94,29.72,20,3,20,0.24
2013-4-5,58,54,52,52,50,49,92,86,72,29.98,29.83,18,6,19,0.22
2013-4-6,56,51,46,50,46,42,96,85,64,30.03,29.73,21,5,22,0.49
2013-4-7,52,48,43,49,43,38,95,82,67,30.00,29.57,30,6,30,0.25
2013-4-8,57,48,41,46,41,38,94,78,60,30.33,30.00,14,1,14,0.00
2013-4-9,57,49,39,46,42,37,94,78,59,30.41,30.27,7,0,7,0.00
2013-4-10,60,54,48,53,46,39,92,75,55,30.37,30.14,19,5,19,0.09
2013-4-11,58,49,40,45,41,37,94,74,55,30.39,30.22,15,1,15,0.00
2013-4-12,53,46,36,45,40,34,94,80,61,30.22,29.88,17,2,17,0.00
2013-4-13,51,45,38,40,37,34,95,75,58,30.13,29.95,24,5,24,0.05
2013-4-14,56,44,38,42,39,35,93,83,50,30.13,29.99,13,1,13,0.10
2013-4-15,59,47,37,41,37,33,95,71,40,30.22,30.00,18,2,18,0.01
2013-4-16,61,50,36,43,38,29,94,67,33,30.43,30.22,15,2,15,0.00
2013-4-17,62,49,36,44,39,33,94,71,45,30.53,30.43,10,1,10,0.01
2013-4-18,60,52,46,49,44,40,92,74,57,30.52,30.34,12,1,12,0.14
2013-4-19,61,54,50,52,48,45,94,82,64,30.34,30.18,20,4,20,0.23
2013-4-20,61,53,48,46,44,41,88,72,54,30.37,30.29,12,2,12,0.00
2013-4-21,56,50,46,49,44,40,88,79,70,30.36,30.28,10,1,10,0.00
2013-4-22,66,53,38,42,36,26,94,59,24,30.48,30.36,20,2,20,0.00
2013-4-23,70,56,40,40,34,28,75,47,23,30.42,30.18,16,2,16,0.00
2013-4-24,76,60,40,40,34,26,83,44,17,30.29,30.05,14,2,14,0.00
2013-4-25,80,63,44,45,41,36,83,48,24,30.18,30.05,13,1,13,0.00
2013-4-26,82,63,43,49,44,34,92,55,19,30.28,30.17,9,1,9,0.00
2013-4-27,75,59,45,50,45,36,92,62,25,30.28,30.22,13,2,13,0.00
2013-4-28,68,59,52,50,45,36,86,62,33,30.29,30.11,19,3,19,0.00
2013-4-29,60,52,42,49,40,30,86,63,35,30.27,30.08,21,5,21,0.01
2013-4-30,59,48,38,44,35,29,88,65,34,30.49,30.27,17,2,17,0.02
2013-5-1,71,54,34,38,35,31,90,54,24,30.56,30.47,11,2,11,0.00
2013-5-2,80,63,42,43,37,28,79,43,16,30.49,30.27,16,2,16,0.00
2013-5-3,82,65,46,46,40,35,71,42,25,30.32,30.15,16,3,16,0.00
2013-5-4,83,69,50,48,39,31,77,39,17,30.16,29.92,23,4,23,0.00
2013-5-5,84,73,57,47,40,36,59,32,19,29.93,29.72,24,4,24,0.00
2013-5-6,87,68,52,56,50,46,82,55,30,29.90,29.75,11,1,11,0.00
2013-5-7,78,64,50,57,52,47,90,66,44,30.05,29.88,10,1,10,0.00
2013-5-8,72,60,52,55,51,48,88,73,52,30.17,30.05,8,1,8,0.00
2013-5-9,80,65,49,58,52,46,93,67,40,30.23,30.09,12,1,12,0.00
2013-5-10,87,71,53,59,54,49,88,59,32,30.22,30.10,7,0,7,0.00
2013-5-11,86,72,59,60,56,51,79,59,37,30.20,30.00,9,1,9,0.00
2013-5-12,70,65,59,59,57,54,93,76,59,30.14,30.07,10,1,10,0.08
2013-5-13,68,59,51,57,52,44,95,78,53,30.25,30.06,22,3,22,0.02
2013-5-14,69,57,43,47,42,35,93,63,33,30.27,30.13,9,1,9,0.00
2013-5-15,59,54,50,51,48,45,89,80,72,30.14,30.05,11,1,11,0.02
2013-5-16,64,57,53,56,53,48,94,86,72,30.05,29.97,12,1,12,0.14
2013-5-17,64,55,45,52,48,43,96,78,56,30.14,30.02,14,1,14,0.01
2013-5-18,58,53,48,53,50,44,95,88,72,30.31,30.14,9,1,9,0.21
2013-5-19,68,58,51,52,48,44,95,73,46,30.44,30.31,13,2,13,0.01
2013-5-20,74,59,44,52,47,42,92,69,40,30.38,29.93,11,1,11,0.00
2013-5-21,58,50,44,50,45,41,92,83,61,30.01,29.85,16,3,16,0.19
2013-5-22,50,46,43,48,44,40,98,92,89,30.01,29.96,19,4,19,0.89
2013-5-23,54,49,46,50,47,44,95,91,78,30.05,29.99,16,4,16,0.66
2013-5-24,59,53,48,52,48,46,98,84,66,30.12,30.00,20,3,20,0.28
2013-5-25,68,58,49,52,49,46,93,74,50,30.11,29.96,12,1,12,0.00
2013-5-26,66,58,54,53,51,48,94,78,54,30.06,29.98,18,4,18,0.17
2013-5-27,66,57,51,59,51,48,95,83,65,30.02,29.77,20,4,20,0.46
2013-5-28,64,58,52,52,49,44,91,74,51,29.96,29.80,16,3,16,0.07
2013-5-29,64,57,51,54,50,45,95,78,58,30.09,29.66,20,4,20,0.35
2013-5-30,64,56,50,51,48,46,87,77,57,30.29,30.09,16,2,16,0.01
2013-5-31,70,60,50,50,47,42,92,66,44,30.37,30.25,12,1,12,0.00
2013-6-1,76,62,47,57,51,45,93,69,45,30.28,30.04,10,1,10,0.00
2013-6-2,73,63,54,54,51,48,84,67,45,30.11,30.05,14,3,14,0.00
2013-6-3,78,62,47,56,50,44,93,67,45,30.15,30.05,13,1,13,0.00
2013-6-4,87,68,48,57,50,44,87,57,24,30.12,29.98,11,2,11,0.00
2013-6-5,85,72,56,61,54,49,80,56,35,30.10,29.99,12,2,12,0.00
2013-6-6,86,70,56,61,53,40,83,57,32,30.07,29.99,17,2,17,0.00
2013-6-7,81,66,52,59,48,41,79,55,30,30.18,30.07,13,2,13,0.00
2013-6-8,81,65,49,54,48,44,92,58,34,30.22,30.07,10,1,10,0.00
2013-6-9,75,62,52,51,48,44,83,61,38,30.14,30.02,19,3,19,0.00
2013-6-10,72,59,46,49,45,42,88,62,41,30.07,29.93,18,2,18,0.00
2013-6-11,68,58,52,50,46,44,81,65,46,30.18,30.02,17,2,17,0.00
2013-6-12,64,56,52,56,50,46,93,78,60,30.21,30.17,21,1,21,0.44
2013-6-13,62,56,51,56,52,48,94,87,76,30.32,30.20,11,1,11,0.43
2013-6-14,68,58,47,53,50,46,96,76,53,30.32,30.02,12,1,12,0.00
2013-6-15,82,66,48,57,52,46,94,65,36,30.02,29.92,12,1,12,0.00
2013-6-16,77,64,55,60,55,51,88,72,52,30.12,30.02,10,1,10,0.00
2013-6-17,79,66,55,55,52,48,89,64,38,30.13,29.96,15,2,15,0.00
2013-6-18,69,61,53,52,50,47,89,68,48,30.04,29.96,18,2,18,0.00
2013-6-19,57,57,57,49,49,48,74,74,73,30.00,30.00,1,0,1,0.00
2013-6-20,68,63,57,60,50,48,74,61,49,30.17,30.00,12,2,12,0.00
2013-6-21,73,63,55,55,51,48,83,65,44,30.21,30.14,12,1,12,0.00
2013-6-22,80,68,50,56,50,41,93,59,25,30.15,29.85,10,1,10,0.00
2013-6-23,70,65,61,61,58,55,95,80,62,29.86,29.65,10,1,10,0.25
2013-6-24,68,61,56,61,56,53,95,83,63,29.74,29.65,13,2,13,0.06
2013-6-25,68,62,58,61,57,55,94,84,68,29.89,29.70,14,2,14,0.17
2013-6-26,73,65,59,61,58,56,94,79,56,30.07,29.89,11,2,11,0.03
2013-6-27,81,70,62,65,62,60,95,76,53,30.18,30.03,11,1,11,0.01
2013-6-28,93,76,60,68,63,58,95,68,35,30.17,30.02,11,1,11,0.00
2013-6-29,71,71,71,61,61,61,71,71,71,30.09,30.09,0,0,1,0.00
2013-6-30,98,82,71,69,63,60,72,54,29,30.10,29.83,12,2,13,0.00
2013-7-1,95,79,67,71,63,60,78,60,41,30.02,29.91,9,1,9,0.00
2013-7-2,90,76,63,66,60,50,81,59,30,30.09,30.02,15,2,15,0.00
2013-7-3,87,71,59,54,50,44,74,51,24,30.16,30.03,14,2,14,0.00
2013-7-4,76,64,54,54,51,49,84,64,46,30.17,30.07,18,3,18,0.00
2013-7-5,76,64,53,57,52,48,86,67,48,30.09,29.96,15,2,15,0.00
2013-7-6,79,65,51,59,54,48,91,69,47,30.01,29.87,14,2,14,0.00
2013-7-7,81,67,54,62,56,50,88,68,48,30.00,29.89,12,2,12,0.00
2013-7-8,85,68,52,61,55,49,91,65,40,30.12,30.00,12,1,12,0.00
2013-7-9,89,75,59,63,58,51,89,59,34,30.10,29.98,16,2,16,0.00
2013-7-10,82,70,58,60,53,47,80,58,36,30.09,29.96,15,2,15,0.00
2013-7-12,63,60,58,50,49,48,69,66,63,30.14,30.10,9,2,9,0.00
2013-7-13,82,66,49,54,48,40,86,55,23,30.20,30.05,17,2,17,0.00
2013-7-14,88,71,54,55,49,40,80,49,21,30.12,29.97,16,2,16,0.00
2013-7-15,86,71,54,55,50,41,80,49,31,30.03,29.82,15,2,15,0.00
2013-7-16,89,74,60,61,53,46,72,50,29,29.99,29.78,10,1,12,0.00
2013-7-17,77,67,59,60,56,54,85,69,47,30.20,29.98,10,2,10,0.00
2013-7-18,83,68,54,60,56,51,91,68,42,30.23,30.08,10,2,10,0.00
2013-7-19,84,69,55,64,57,51,89,68,44,30.17,30.01,13,2,13,0.00
2013-7-20,84,67,53,63,56,50,90,70,45,30.11,29.95,12,1,12,0.00
2013-7-21,84,67,52,63,56,49,92,70,48,30.02,29.90,11,1,11,0.00
2013-7-22,84,69,55,62,57,52,92,68,46,30.07,29.96,9,1,9,0.00
2013-7-23,91,74,58,66,60,54,92,65,33,30.06,29.93,12,2,12,0.00
2013-7-24,91,76,58,63,57,53,83,56,33,30.05,29.96,13,2,13,0.00
2013-7-25,91,74,57,60,54,49,82,52,30,30.10,30.01,15,2,15,0.00
2013-7-26,92,72,55,58,50,42,77,48,27,30.17,30.06,20,3,20,0.00
2013-7-27,83,68,53,53,49,42,83,55,27,30.21,30.02,14,2,14,0.00
2013-7-28,76,62,50,57,52,46,92,69,50,30.09,29.99,12,1,12,0.00
2013-7-29,80,66,57,60,54,50,79,65,42,30.04,29.95,8,1,8,0.00
2013-7-30,84,69,56,62,57,53,88,68,39,30.17,30.04,11,1,11,0.00
2013-7-31,81,68,57,62,57,54,88,69,50,30.14,30.01,8,1,9,0.00
2013-8-1,67,62,58,57,55,53,90,78,69,30.14,30.07,8,1,8,0.00
2013-8-2,72,65,58,58,55,53,86,72,54,30.17,30.11,8,0,8,0.00
2013-8-3,82,68,54,62,58,52,93,72,50,30.14,30.00,13,1,13,0.00
2013-8-4,91,74,58,65,60,55,92,65,35,30.05,29.90,12,1,13,0.00
2013-8-5,90,76,60,64,59,44,89,59,37,30.02,29.90,12,2,12,0.00
2013-8-6,94,75,56,59,50,45,74,44,20,30.01,29.90,10,1,10,0.00
2013-8-7,88,72,58,60,55,50,80,56,31,30.04,29.94,14,1,14,0.00
2013-8-8,84,70,60,64,58,53,85,67,50,30.06,29.91,12,1,12,0.00
2013-8-9,81,70,60,63,57,52,78,64,49,29.96,29.86,14,1,14,0.00
2013-8-10,83,71,61,65,61,58,90,72,50,30.05,29.90,7,1,10,0.00
2013-8-11,75,66,61,61,58,56,85,76,59,30.09,30.00,9,1,9,0.00
2013-8-12,80,68,59,59,57,54,90,70,44,30.09,30.01,12,1,12,0.00
2013-8-13,87,71,56,58,55,49,87,61,27,30.13,29.93,8,0,8,0.00
2013-8-14,85,70,56,61,56,50,88,63,32,29.99,29.92,10,1,10,0.00
2013-8-15,79,71,66,67,64,61,92,80,63,29.99,29.94,7,0,7,0.02
2013-8-16,86,73,62,67,63,58,94,74,48,30.05,29.96,13,1,13,0.00
2013-8-17,86,71,59,62,58,54,86,67,42,30.11,30.02,14,1,14,0.00
2013-8-18,85,70,57,62,58,54,90,67,42,30.16,30.05,12,1,12,0.00
2013-8-19,85,70,57,61,56,52,92,66,39,30.14,30.06,20,2,20,0.00
2013-8-20,84,68,51,59,52,48,89,61,33,30.16,30.01,14,2,14,0.00
2013-8-21,90,73,54,58,53,49,84,54,27,30.03,29.85,10,1,10,0.00
2013-8-22,85,72,57,60,56,51,82,58,41,29.92,29.84,8,0,8,0.00
2013-8-23,77,67,58,62,58,56,94,76,52,29.97,29.88,9,1,9,0.16
2013-8-24,77,67,61,60,57,54,92,72,47,29.94,29.87,11,1,11,0.01
2013-8-25,70,64,56,62,56,52,91,78,66,29.96,29.92,6,0,6,0.08
2013-8-26,78,66,59,62,57,51,94,75,40,29.99,29.91,18,2,18,0.22
2013-8-27,82,70,62,64,61,58,96,75,49,29.99,29.81,11,1,11,0.06
2013-8-28,82,67,61,65,61,59,96,83,51,29.92,29.85,10,0,10,0.03
2013-8-29,77,69,65,68,65,63,96,86,65,30.08,29.86,18,2,18,0.26
2013-8-30,82,71,62,64,61,58,95,73,44,30.17,30.06,11,1,11,0.01
2013-8-31,90,73,56,63,58,54,94,65,35,30.07,29.81,9,1,9,0.00
2013-9-1,86,72,60,59,57,52,88,62,35,29.92,29.80,13,1,13,0.00
2013-9-2,80,71,64,63,58,54,82,63,43,29.94,29.88,14,1,14,0.00
2013-9-3,82,69,61,62,59,55,95,74,41,30.01,29.93,12,1,12,0.28
2013-9-4,76,68,61,62,60,57,89,76,60,30.07,29.99,9,1,9,0.00
2013-9-5,68,64,60,62,60,59,96,89,79,30.05,29.98,12,1,12,0.64
2013-9-6,70,64,60,61,60,58,96,86,69,30.15,30.03,15,3,15,0.59
2013-9-7,82,67,56,63,59,54,97,77,45,30.14,29.98,11,1,11,0.00
2013-9-8,86,72,57,64,60,55,95,70,38,30.09,30.00,14,1,14,0.00
2013-9-10,92,88,72,64,63,62,72,44,37,29.83,29.78,9,2,9,0.00
2013-9-11,100,79,61,67,62,58,92,60,29,29.94,29.82,10,0,10,0.00
2013-9-12,86,72,61,67,62,57,88,73,48,30.02,29.90,6,0,6,0.00
2013-9-13,76,66,60,65,61,58,92,84,67,29.99,29.86,7,0,7,0.00
2013-9-14,82,69,61,66,62,59,92,80,55,29.88,29.72,7,0,7,0.00
2013-9-15,68,64,61,63,60,57,95,90,82,29.90,29.72,7,0,7,0.04
2013-9-16,69,63,60,62,58,56,94,85,70,30.00,29.90,12,1,12,0.25
2013-9-17,70,61,54,58,53,48,95,76,50,30.04,29.90,14,1,14,0.01
2013-9-18,76,60,49,56,50,47,96,73,41,30.14,30.03,9,0,10,0.00
2013-9-19,81,62,46,54,50,44,95,68,33,30.04,29.80,7,0,7,0.00
2013-9-20,73,59,49,58,53,47,94,81,57,29.80,29.67,15,1,15,0.02
2013-9-21,67,59,54,60,56,52,95,88,73,29.80,29.71,16,0,16,0.30
2013-9-22,62,57,55,59,54,52,95,90,77,29.88,29.69,29,4,29,0.19
2013-9-23,65,58,54,56,54,52,94,87,71,30.03,29.88,14,2,14,0.08
2013-9-24,60,54,50,54,51,48,96,91,71,30.02,29.90,16,1,16,0.30
2013-9-25,62,54,48,53,49,46,96,86,67,30.07,29.89,8,0,8,0.04
2013-9-26,67,52,42,52,48,41,97,85,55,30.21,30.07,11,0,11,0.01
2013-9-27,56,52,48,54,50,46,97,93,87,30.21,29.95,22,3,22,0.28
2013-9-28,63,58,53,60,56,51,95,94,89,29.95,29.52,31,6,31,1.79
2013-9-29,56,54,51,55,52,48,95,93,76,29.70,29.38,27,6,27,1.46
2013-9-30,60,54,50,54,50,47,94,86,67,30.03,29.62,14,4,16,0.48
2013-10-1,61,52,44,51,48,42,95,85,60,30.23,30.00,17,2,17,0.41
2013-10-2,55,47,43,49,45,41,98,93,78,30.23,30.11,11,0,11,0.34
2013-10-3,60,49,43,50,45,42,97,88,64,30.47,30.23,7,0,7,0.01
2013-10-4,67,52,41,52,46,40,100,84,56,30.50,30.38,9,0,9,0.00
2013-10-5,75,56,39,51,46,38,96,74,37,30.38,30.17,6,0,6,0.00
2013-10-6,74,56,41,54,46,40,97,73,36,30.17,29.98,13,1,13,0.00
2013-10-7,62,57,51,53,49,45,94,76,56,30.17,30.00,15,2,15,0.04
2013-10-8,58,52,44,52,48,42,95,87,69,30.19,30.02,15,1,15,0.06
2013-10-9,63,50,38,48,44,37,96,80,44,30.16,30.00,9,1,9,0.00
2013-10-10,61,52,46,52,48,44,94,85,61,30.13,29.99,9,0,9,0.00
2013-10-11,60,52,44,48,46,42,94,80,56,30.19,30.12,4,0,7,0.00
2013-10-12,58,51,43,50,46,41,96,85,69,30.21,30.10,7,0,7,0.01
2013-10-13,66,51,40,52,45,38,96,82,57,30.33,30.21,9,1,9,0.01
2013-10-14,68,51,39,48,43,37,98,76,43,30.41,30.32,10,1,11,0.00
2013-10-15,69,54,38,46,42,36,95,69,36,30.37,30.16,12,1,12,0.00
2013-10-16,69,53,41,51,45,39,94,76,42,30.19,30.13,10,0,10,0.00
2013-10-17,68,52,39,53,46,37,96,80,52,30.27,30.17,7,0,7,0.00
2013-10-18,72,55,40,50,44,38,96,71,34,30.22,30.10,11,1,11,0.00
2013-10-19,72,53,38,52,45,36,95,76,46,30.19,30.12,5,0,5,0.00
2013-10-20,71,52,39,53,46,37,97,82,48,30.19,30.08,6,0,6,0.00
2013-10-21,78,56,39,55,48,38,95,76,41,30.13,30.00,6,0,6,0.00
2013-10-22,80,59,42,54,48,41,96,72,35,30.08,29.97,6,0,6,0.00
2013-10-23,76,57,42,54,49,40,96,76,44,30.04,29.95,4,0,4,0.00
2013-10-24,72,50,42,54,46,41,96,87,51,30.13,30.01,5,0,5,0.01
2013-10-25,55,51,47,51,49,45,96,92,87,30.31,30.13,5,0,5,0.01
2013-10-26,59,51,45,50,47,43,95,86,72,30.33,30.20,9,0,9,0.00
2013-10-27,57,51,47,51,46,44,94,84,65,30.22,29.88,18,3,18,0.07
2013-10-28,60,49,38,46,37,30,96,68,35,29.97,29.86,10,1,14,0.00
2013-10-29,61,45,32,40,35,30,95,72,36,30.10,29.96,6,0,9,0.00
2013-10-30,58,45,31,46,38,29,95,77,53,30.23,30.09,6,0,6,0.00
2013-10-31,61,54,50,52,48,45,91,80,70,30.31,30.18,9,0,9,0.00
2013-11-1,62,54,48,52,50,45,95,88,69,30.32,29.94,7,0,7,0.17
2013-11-2,57,53,44,52,46,39,95,80,57,30.10,29.75,20,5,20,0.42
2013-11-3,52,46,39,44,42,38,100,85,69,30.19,30.08,13,1,13,0.04
2013-11-4,50,47,44,48,45,42,98,93,88,30.21,30.14,11,1,11,0.23
2013-11-5,55,51,49,52,50,47,96,93,89,30.28,30.12,12,2,12,0.09
2013-11-6,53,51,49,52,50,48,97,96,94,30.33,30.11,3,0,3,0.27
2013-11-7,56,53,48,55,50,46,100,92,73,30.16,29.89,21,4,22,0.33
2013-11-8,53,48,44,48,46,42,96,91,78,30.23,30.15,7,0,7,0.01
2013-11-9,51,46,40,46,43,39,97,92,83,30.17,30.08,3,0,3,0.01
2013-11-10,60,51,44,49,46,43,98,86,66,30.13,30.08,5,0,5,0.00
2013-11-11,60,50,40,49,42,39,97,76,55,30.20,30.06,20,2,20,0.01
2013-11-12,57,51,47,54,49,43,96,93,82,30.46,30.11,7,0,7,0.25
2013-11-13,57,50,44,51,48,43,96,93,79,30.53,30.34,6,1,6,0.00
2013-11-14,52,46,43,47,44,42,97,94,82,30.34,30.15,7,0,7,0.02
2013-11-15,49,44,38,47,42,37,97,94,88,30.15,29.56,23,3,23,0.03
2013-11-16,51,48,45,47,42,40,92,81,67,29.89,29.56,15,2,15,0.01
2013-11-17,54,50,46,48,46,42,91,85,78,30.02,29.89,17,5,18,0.00
2013-11-18,52,51,50,50,47,44,93,86,79,30.00,29.74,28,6,28,0.33
2013-11-19,53,48,37,51,44,32,96,85,74,30.07,29.74,21,3,21,0.21
2013-11-20,46,37,29,33,30,27,95,76,57,30.46,30.07,16,2,16,0.01
2013-11-21,48,38,28,27,22,12,83,56,26,30.63,30.46,13,2,13,0.00
2013-11-22,50,38,24,28,20,14,92,56,28,30.63,30.46,22,3,22,0.00
2013-11-23,53,43,29,28,21,17,77,45,26,30.46,30.22,15,2,15,0.00
2013-11-24,54,35,27,30,27,24,91,74,33,30.26,30.21,4,0,4,0.00
2013-11-25,53,38,27,33,29,25,94,73,42,30.40,30.33,3,0,6,0.00
2013-11-26,49,39,29,36,32,27,94,76,57,30.33,30.11,3,0,4,0.00
2013-11-27,56,43,32,39,33,30,96,71,40,30.11,30.00,8,0,8,0.00
2013-11-28,57,40,29,38,33,28,100,78,47,30.26,30.07,4,0,4,0.00
2013-11-29,46,38,29,40,35,28,95,88,75,30.42,30.26,10,0,10,0.01
2013-11-30,50,45,41,47,42,39,98,89,79,30.43,30.23,8,0,8,0.05
2013-12-1,59,54,49,54,51,47,95,91,80,30.23,29.94,23,7,23,0.60
2013-12-2,52,43,33,49,38,31,94,84,57,30.10,29.94,19,1,19,0.05
2013-12-3,43,36,29,36,28,19,96,75,42,30.34,30.10,17,2,17,0.01
2013-12-4,38,30,22,29,20,15,94,68,39,30.40,30.33,13,1,13,0.00
2013-12-5,34,27,18,23,17,13,92,69,45,30.36,30.21,11,1,12,0.00
2013-12-6,30,28,25,20,14,9,80,58,46,30.21,30.04,24,7,27,0.00
2013-12-7,30,25,15,10,6,2,78,45,31,30.50,30.17,23,4,23,0.00
2013-12-8,30,20,11,16,12,8,92,75,48,30.66,30.49,4,0,4,0.00
2013-12-9,29,23,14,24,18,12,91,81,68,30.68,30.59,3,0,3,0.00
2013-12-10,36,30,27,29,26,24,92,85,73,30.61,30.45,3,0,3,0.00
2013-12-11,43,30,24,34,27,22,99,88,68,30.46,30.26,5,0,5,0.00
2013-12-12,36,29,23,34,27,21,100,94,91,30.27,30.18,4,0,4,0.03
2013-12-13,43,40,36,42,39,34,100,96,95,30.49,30.26,4,0,4,0.01
2013-12-14,42,40,39,41,40,38,97,97,97,30.51,30.43,7,0,7,0.00
2013-12-15,45,41,39,44,40,38,98,97,95,30.54,30.47,3,0,3,0.01
2013-12-16,47,41,37,45,40,36,98,96,90,30.52,30.30,7,0,7,0.00
2013-12-17,39,37,36,38,36,35,98,97,97,30.31,30.24,6,0,6,0.01
2013-12-18,42,38,31,40,36,30,100,95,87,30.24,30.10,9,0,9,0.02
2013-12-19,40,33,27,36,30,26,97,91,77,30.38,30.17,7,0,7,0.00
2013-12-20,43,37,33,42,36,31,96,94,90,30.29,29.93,19,2,19,0.08
2013-12-21,53,46,42,49,44,41,97,93,79,30.26,29.98,7,0,7,0.07
2013-12-22,55,49,46,50,46,44,95,91,80,30.39,30.25,9,1,9,0.01
2013-12-23,53,47,37,50,45,35,97,91,76,30.59,30.33,15,2,15,0.08
2013-12-24,42,36,31,41,35,30,98,97,95,30.66,30.54,5,0,5,0.01
2013-12-25,41,36,32,39,34,31,98,96,89,30.54,30.44,6,0,6,0.00
2013-12-26,36,34,32,36,33,31,98,97,96,30.46,30.29,4,0,4,0.01
2013-12-27,35,33,31,35,33,31,98,97,97,30.46,30.27,5,0,5,0.00
2013-12-28,45,39,34,41,37,33,97,92,83,30.56,30.46,5,0,5,0.00
2013-12-29,40,38,34,39,36,33,96,94,91,30.51,30.34,5,0,5,0.00
2013-12-30,42,39,36,40,38,35,97,95,90,30.35,30.24,8,0,8,0.00
2013-12-31,50,43,38,44,41,38,98,92,81,30.39,30.28,4,0,4,0.03
2014-1-1,46,41,37,45,40,36,98,96,93,30.41,30.30,4,0,4,0.01
2014-1-2,41,39,37,41,39,36,98,97,97,30.32,30.08,5,0,5,0.03